Location: Marne
(34.0056°N, 117.9064°W)
Time: 15:23:47
(UTC+00:00)

ASTRO E2 - Pass Details

Date: 18 January 2020
Orbit: 510 x 517 km, 31.4° (Epoch: 26 February)

Event Time Altitude Azimuth Distance (km) Brightness Sun altitude
Rises 01:49:02 0° 270° (W) 2,605 7.9 -8.9°
Reaches altitude 10° 01:51:18 10° 265° (W) 1,718 6.8 -9.3°
Maximum altitude 01:55:08 49° 190° (S) 656 3.4 -10.1°
Drops below altitude 10° 01:58:57 10° 114° (ESE) 1,715 4.9 -10.8°
Enters shadow 01:59:14 - 113° (ESE) 1,822 5.0 -10.9°
